Location: Canazei
(46.4667°N, 11.7667°E)
Time: 04:46:50
(UTC+00:00)

Cosmos 1844 Rocket - Pass Details

Date: 21 April 2021
Orbit: 825 x 844 km, 71.0° (Epoch: 10 May)

Event Time Altitude Azimuth Distance (km) Brightness Sun altitude
Exits shadow 00:46:56 25° 296° (WNW) 1,601 4.1 -27.9°
Maximum altitude 00:47:51 27° 311° (NW) 1,560 4.2 -27.8°
Drops below altitude 10° 00:52:31 10° 8° (N) 2,439 6.0 -27.4°
Sets 00:55:22 0° 21° (NNE) 3,379 7.1 -27.2°
